�N����,�����b,�ŏ������i�x�j,���ϕ����i�x�j,�ő啗���i�x�j,�ŏ�����(m/s),���ϕ���(m/s),�ő啗��(m/s),�C��(���j,���x�i���j,�C��(hPa),�~�J��(mm),�~�J����(�b�j,�~�J���x(mm/h),�~�Ђ傤��(hit/���u),�~�Ђ傤����(�b�j,�~�Ђ傤���x(hit/���uh),�q�[�^���x(���j,�q�[�^�[�d���iV),�d���d���iV),�Q�Ɠd���iV)
2007/11/01,00:00:01,278,34,165,0.1,4.2,8.8,25.1,82.5,1010.1,0.00,0,0.0,0.0,0,0.0,24.3,0.0,12.3,3.470
2007/11/01,00:10:01,220,34,184,0.1,3.8,8.5,25.1,82.0,1009.9,0.00,0,0.0,0.0,0,0.0,24.4,0.0,12.3,3.470
2007/11/01,00:20:01,237,33,200,0.2,3.8,8.2,25.1,82.6,1009.9,0.00,0,0.0,0.0,0,0.0,24.6,0.0,11.9,3.472
2007/11/01,00:30:01,232,34,100,0.2,4.2,8.2,25.1,82.6,1009.8,0.00,0,0.0,0.0,0,0.0,24.4,0.0,12.3,3.470
2007/11/01,00:40:01,217,34,160,0.0,4.1,8.4,25.1,83.2,1009.7,0.00,0,0.0,0.0,0,0.0,24.3,0.0,12.2,3.470
2007/11/01,00:50:01,240,34,188,0.3,3.9,7.7,25.1,83.7,1009.7,0.00,0,0.0,0.0,0,0.0,24.3,0.0,12.1,3.470
2007/11/01,01:00:01,223,44,168,0.2,3.5,7.3,25.0,83.5,1009.5,0.00,0,0.0,0.0,0,0.0,24.3,0.0,11.8,3.470
2007/11/01,01:10:01,230,44,220,0.0,3.0,6.6,25.0,84.1,1009.5,0.00,0,0.0,0.0,0,0.0,24.3,0.0,11.9,3.472
2007/11/01,01:20:01,263,41,206,0.1,3.4,8.1,25.0,84.1,1009.4,0.00,0,0.0,0.0,0,0.0,24.3,0.0,11.9,3.470
2007/11/01,01:30:01,233,45,208,0.0,3.2,8.0,25.0,84.6,1009.2,0.00,0,0.0,0.0,0,0.0,24.3,0.0,11.9,3.472
2007/11/01,01:40:01,244,43,183,0.2,3.2,6.7,25.0,84.8,1009.2,0.00,0,0.0,0.0,0,0.0,24.3,0.0,11.9,3.472
2007/11/01,01:50:01,258,38,189,0.2,3.6,7.0,25.1,84.9,1009.3,0.00,0,0.0,0.0,0,0.0,24.4,0.0,12.2,3.472
2007/11/01,02:00:01,224,34,184,0.2,3.7,8.2,25.2,84.5,1009.1,0.00,0,0.0,0.0,0,0.0,24.4,0.0,12.2,3.470
2007/11/01,02:10:01,253,36,187,0.2,3.9,8.0,25.2,85.1,1009.0,0.00,0,0.0,0.0,0,0.0,24.4,0.0,11.8,3.470
2007/11/01,02:20:01,235,38,192,0.1,3.6,7.6,25.1,85.2,1008.9,0.00,0,0.0,0.0,0,0.0,24.3,0.0,12.2,3.470
2007/11/01,02:30:01,223,33,157,0.0,3.6,7.3,25.1,85.2,1008.8,0.00,0,0.0,0.0,0,0.0,24.4,0.0,12.0,3.472
2007/11/01,02:40:01,233,33,163,0.1,4.1,7.9,25.2,85.4,1008.7,0.00,0,0.0,0.0,0,0.0,24.6,0.0,11.9,3.469
2007/11/01,02:50:01,248,33,162,0.3,4.0,8.6,25.2,85.8,1008.6,0.00,20,0.0,0.0,0,0.0,24.3,0.0,11.9,3.470
2007/11/01,03:00:01,253,28,129,0.3,5.0,9.4,25.1,86.2,1008.5,0.00,40,0.0,0.0,0,0.0,24.3,0.0,11.9,3.470
2007/11/01,03:10:01,262,28,136,0.1,4.8,9.1,25.0,86.4,1008.6,0.03,230,0.0,0.0,0,0.0,24.1,0.0,12.1,3.470
2007/11/01,03:20:01,334,26,172,0.2,5.0,9.1,24.9,86.7,1008.6,0.04,280,0.0,0.0,0,0.0,23.8,0.0,11.9,3.469
2007/11/01,03:30:01,238,25,182,0.4,4.7,8.8,24.8,87.0,1008.5,0.00,10,0.0,0.0,0,0.0,23.8,0.0,12.2,3.469
2007/11/01,03:40:01,246,58,219,0.1,2.9,8.3,24.5,88.8,1008.6,2.46,490,28.5,0.0,0,0.0,23.4,0.0,12.2,3.470
2007/11/01,03:50:01,265,68,229,0.1,2.7,7.4,24.2,91.2,1008.5,1.18,420,0.0,0.0,0,0.0,23.3,0.0,12.1,3.472
2007/11/01,04:00:01,260,67,232,0.1,2.3,5.8,24.3,91.0,1008.3,0.00,50,0.0,0.0,0,0.0,23.3,0.0,11.8,3.472
2007/11/01,04:10:01,237,51,219,0.0,2.9,6.9,24.3,90.9,1008.2,0.00,0,0.0,0.0,0,0.0,23.1,0.0,11.8,3.470
2007/11/01,04:20:01,235,41,215,0.2,3.5,7.3,24.5,90.8,1008.3,0.00,0,0.0,0.0,0,0.0,23.4,0.0,12.1,3.470
2007/11/01,04:30:01,244,32,171,0.0,4.3,8.7,24.6,89.9,1008.3,0.00,0,0.0,0.0,0,0.0,23.6,0.0,12.3,3.469
2007/11/01,04:40:01,256,31,106,0.2,4.4,8.3,24.6,89.4,1008.2,0.00,0,0.0,0.0,0,0.0,23.8,0.0,12.3,3.470
2007/11/01,04:50:01,230,40,206,0.0,4.1,9.3,24.4,89.8,1008.3,0.01,30,0.0,0.0,0,0.0,23.6,0.0,12.3,3.472
2007/11/01,05:00:01,242,32,206,0.1,3.5,7.8,24.3,90.3,1008.4,0.00,10,0.0,0.0,0,0.0,23.4,0.0,12.3,3.470
2007/11/01,05:10:01,250,27,190,0.0,4.3,8.5,24.4,89.8,1008.3,0.00,0,0.0,0.0,0,0.0,23.4,0.0,12.1,3.472
2007/11/01,05:20:01,231,29,196,0.1,4.7,9.2,24.4,90.3,1008.3,0.00,0,0.0,0.0,0,0.0,23.6,0.0,12.1,3.470
2007/11/01,05:30:01,284,23,190,0.1,4.3,8.6,24.3,90.2,1008.5,0.00,20,0.0,0.0,0,0.0,23.4,0.0,12.0,3.469
2007/11/01,05:40:01,252,20,162,0.1,4.2,8.6,24.1,90.7,1008.7,0.01,110,0.4,0.0,0,0.0,23.3,0.0,12.2,3.469
2007/11/01,05:50:01,214,22,199,0.2,4.2,8.7,24.1,91.1,1008.5,0.11,180,1.1,0.0,0,0.0,23.1,0.0,11.8,3.472
2007/11/01,06:00:01,233,22,171,0.1,5.0,9.8,24.1,90.8,1008.6,0.02,250,0.2,0.0,0,0.0,22.9,0.0,12.2,3.470
2007/11/01,06:10:01,245,18,182,0.2,5.0,10.6,24.1,91.1,1008.5,0.01,160,0.0,0.0,0,0.0,23.1,0.0,12.1,3.470
2007/11/01,06:20:01,330,20,98,0.1,5.1,10.0,24.0,91.2,1008.7,0.00,0,0.0,0.0,0,0.0,23.3,0.0,11.9,3.473
2007/11/01,06:30:01,212,23,152,0.1,4.8,10.5,24.0,90.5,1008.7,0.00,20,0.0,0.0,0,0.0,23.1,0.0,12.1,3.472
2007/11/01,06:40:01,258,28,145,0.5,6.0,11.1,24.2,90.8,1008.7,0.00,0,0.0,0.0,0,0.0,23.4,0.0,12.1,3.470
2007/11/01,06:50:01,246,26,124,0.6,6.4,11.4,24.2,91.0,1008.7,0.00,0,0.0,0.0,0,0.0,23.3,0.0,11.9,3.472
2007/11/01,07:00:01,244,23,127,0.3,6.2,12.3,24.1,89.7,1008.7,0.00,0,0.0,0.0,0,0.0,23.1,0.0,12.2,3.470
2007/11/01,07:10:01,290,25,126,0.5,6.1,11.8,24.1,89.4,1008.8,0.00,0,0.0,0.0,0,0.0,23.4,0.0,12.0,3.472
2007/11/01,07:20:01,226,30,172,0.2,5.4,9.9,24.3,90.4,1008.9,0.00,0,0.0,0.0,0,0.0,23.4,0.0,12.2,3.470
2007/11/01,07:30:01,272,29,132,0.3,5.3,10.3,24.2,90.1,1008.9,0.00,0,0.0,0.0,0,0.0,23.4,0.0,12.1,3.470
2007/11/01,07:40:01,307,30,100,0.4,5.4,10.4,24.2,90.3,1009.0,0.00,0,0.0,0.0,0,0.0,23.4,0.0,12.1,3.470
2007/11/01,07:50:01,269,28,119,0.3,5.5,11.3,24.2,90.4,1009.2,0.00,0,0.0,0.0,0,0.0,23.3,0.0,12.0,3.470
2007/11/01,08:00:01,239,26,135,0.2,5.7,11.0,24.2,90.3,1009.3,0.00,0,0.0,0.0,0,0.0,23.1,0.0,12.1,3.469
2007/11/01,08:10:01,246,30,137,0.4,6.1,11.6,24.2,89.4,1009.4,0.00,10,0.0,0.0,0,0.0,23.1,0.0,12.0,3.472
2007/11/01,08:20:01,244,34,210,0.0,5.8,11.8,23.9,89.1,1009.5,0.00,50,0.3,0.0,0,0.0,23.1,0.0,11.8,3.468
2007/11/01,08:30:01,317,29,100,0.3,5.4,10.4,23.8,90.4,1009.6,0.02,250,0.0,0.0,0,0.0,22.7,0.0,11.9,3.470
2007/11/01,08:40:01,222,25,126,0.3,5.1,10.4,23.8,90.1,1009.5,0.01,90,0.0,0.0,0,0.0,22.6,0.0,12.1,3.473
2007/11/01,08:50:01,218,23,180,0.1,5.7,10.1,23.8,89.0,1009.5,0.00,0,0.0,0.0,0,0.0,22.7,0.0,12.1,3.472
2007/11/01,09:00:01,204,21,140,0.3,6.3,12.9,24.0,89.4,1009.5,0.00,0,0.0,0.0,0,0.0,22.9,0.0,11.9,3.472
2007/11/01,09:10:01,260,21,163,0.1,5.8,12.3,24.0,87.6,1009.6,0.00,0,0.0,0.0,0,0.0,23.1,0.0,12.1,3.470
2007/11/01,09:20:01,259,21,176,0.2,5.8,11.6,23.9,86.4,1009.7,0.03,280,0.0,0.0,0,0.0,22.9,0.0,11.8,3.470
2007/11/01,09:30:01,274,22,140,0.0,5.6,10.0,24.0,86.4,1009.7,0.01,90,0.0,0.0,0,0.0,22.9,0.0,11.9,3.472
2007/11/01,09:40:01,249,20,180,0.0,5.5,10.8,24.3,86.0,1009.6,0.09,290,1.3,0.0,0,0.0,23.3,0.0,11.9,3.472
2007/11/01,09:50:01,250,23,102,0.1,5.9,11.6,24.3,82.6,1009.5,0.05,530,1.0,0.0,0,0.0,23.3,0.0,12.0,3.472
2007/11/01,10:00:01,247,19,156,0.1,5.6,11.9,24.3,86.7,1009.6,0.15,330,0.0,0.0,0,0.0,23.1,0.0,12.1,3.472
2007/11/01,10:10:01,240,18,133,0.2,5.9,12.8,24.3,86.3,1009.6,0.02,310,0.4,0.0,0,0.0,23.1,0.0,12.0,3.472
2007/11/01,10:20:01,203,19,153,0.4,5.9,14.8,24.3,86.0,1009.5,0.15,550,0.3,0.0,0,0.0,23.3,0.0,12.1,3.472
2007/11/01,10:30:01,238,20,138,0.1,6.1,12.9,24.4,86.0,1009.4,0.00,80,0.0,0.0,0,0.0,23.1,0.0,12.1,3.472
2007/11/01,10:40:01,236,17,178,0.2,6.6,12.6,24.4,85.8,1009.3,0.00,0,0.0,0.0,0,0.0,23.4,0.0,12.1,3.470
2007/11/01,10:50:01,199,14,174,0.2,7.3,18.1,24.2,86.4,1009.1,0.02,120,0.0,0.0,0,0.0,23.1,0.0,12.2,3.470
2007/11/01,11:00:01,240,14,121,0.0,7.3,14.8,23.9,86.9,1009.1,0.01,40,0.0,0.0,0,0.0,22.9,0.0,12.1,3.470
2007/11/01,11:10:01,256,13,92,1.0,7.5,15.3,23.8,87.5,1008.9,0.00,90,0.0,0.0,0,0.0,22.6,0.0,11.9,3.470
2007/11/01,11:20:01,204,12,100,0.6,7.4,14.8,23.7,89.3,1008.8,0.01,80,0.0,0.0,0,0.0,22.6,0.0,12.0,3.470
2007/11/01,11:30:01,316,12,137,0.4,7.6,15.3,23.7,88.3,1008.8,0.01,70,0.0,0.0,0,0.0,22.6,0.0,12.1,3.470
2007/11/01,11:40:01,307,11,179,0.4,6.7,14.1,23.9,87.2,1008.7,0.00,0,0.0,0.0,0,0.0,23.1,0.0,12.1,3.470
2007/11/01,11:50:01,195,12,173,0.4,7.8,14.4,23.9,83.0,1008.7,0.00,0,0.0,0.0,0,0.0,23.4,0.0,12.1,3.470
2007/11/01,12:00:01,241,10,162,0.1,7.1,14.2,24.2,84.3,1008.5,0.00,0,0.0,0.0,0,0.0,23.6,0.0,12.0,3.470
2007/11/01,12:10:01,280,9,154,0.2,7.1,15.1,24.0,87.6,1008.4,0.00,50,0.0,0.0,0,0.0,23.4,0.0,12.0,3.473
2007/11/01,12:20:01,279,8,116,0.3,7.6,15.3,23.7,88.8,1008.5,0.00,30,0.0,0.0,0,0.0,22.9,0.0,12.0,3.470
2007/11/01,12:30:01,270,8,166,0.2,7.2,15.5,23.6,87.3,1008.2,0.00,0,0.0,0.0,0,0.0,22.9,0.0,11.9,3.470
2007/11/01,12:40:01,272,9,118,0.1,8.5,16.5,23.5,87.7,1008.1,0.00,0,0.0,0.0,0,0.0,22.6,0.0,12.1,3.473
2007/11/01,12:50:01,197,10,186,0.4,8.9,17.6,23.6,87.3,1008.1,0.00,0,0.0,0.0,0,0.0,22.9,0.0,12.3,3.472
2007/11/01,13:00:01,290,8,138,0.5,8.5,15.7,23.2,88.8,1008.0,0.00,0,0.0,0.0,0,0.0,22.6,0.0,12.1,3.470
2007/11/01,13:10:01,245,10,134,0.4,8.9,17.2,23.4,87.4,1007.8,0.00,0,0.0,0.0,0,0.0,22.7,0.0,12.2,3.472
2007/11/01,13:20:01,306,8,134,0.7,8.2,17.3,23.4,87.8,1007.7,0.00,0,0.0,0.0,0,0.0,22.9,0.0,12.0,3.470
2007/11/01,13:30:01,238,8,117,0.8,7.7,18.1,23.3,87.2,1007.9,0.00,0,0.0,0.0,0,0.0,22.9,0.0,12.1,3.470
2007/11/01,13:40:01,241,11,132,0.5,8.7,16.9,23.2,86.0,1007.6,0.00,0,0.0,0.0,0,0.0,22.6,0.0,12.1,3.472
2007/11/01,13:50:01,239,13,152,0.6,8.9,16.6,23.0,87.9,1007.6,0.00,0,0.0,0.0,0,0.0,22.2,0.0,12.0,3.472
2007/11/01,14:00:01,209,12,150,0.1,9.0,18.5,22.8,86.6,1007.6,0.00,10,0.0,0.0,0,0.0,22.2,0.0,11.9,3.472
2007/11/01,14:10:01,276,11,155,0.4,8.8,17.8,22.8,86.7,1007.5,0.00,0,0.0,0.0,0,0.0,22.1,0.0,11.9,3.470
2007/11/01,14:20:01,260,13,138,0.3,8.4,17.3,22.8,88.5,1007.6,0.00,0,0.0,0.0,0,0.0,21.9,0.0,11.9,3.472
2007/11/01,14:30:01,296,15,137,0.7,8.4,16.0,22.5,88.4,1007.5,0.00,0,0.0,0.0,0,0.0,21.6,0.0,12.0,3.473
2007/11/01,14:40:01,265,18,142,0.2,7.9,15.5,22.5,88.0,1007.5,0.00,30,0.0,0.0,0,0.0,21.7,0.0,11.9,3.470
2007/11/01,14:50:01,303,16,75,1.2,7.9,15.6,22.6,87.8,1007.4,0.08,370,0.6,0.0,0,0.0,21.9,0.0,11.9,3.472
2007/11/01,15:00:01,206,19,143,0.9,7.6,14.9,22.4,87.2,1007.5,0.01,160,0.0,0.0,0,0.0,21.4,0.0,12.0,3.472
2007/11/01,15:10:01,257,23,199,0.6,6.8,14.1,22.6,89.1,1007.3,0.00,0,0.0,0.0,0,0.0,21.4,0.0,11.9,3.470
2007/11/01,15:20:01,302,28,130,0.4,6.8,12.6,22.5,88.0,1007.2,0.00,0,0.0,0.0,0,0.0,21.7,0.0,12.1,3.470
2007/11/01,15:30:01,235,27,124,0.2,6.4,11.3,22.4,86.7,1007.3,0.00,0,0.0,0.0,0,0.0,21.4,0.0,12.0,3.470
2007/11/01,15:40:01,247,24,193,0.0,6.3,11.4,22.5,87.5,1007.3,0.00,0,0.0,0.0,0,0.0,21.6,0.0,12.0,3.472
2007/11/01,15:50:01,226,25,137,0.0,6.0,11.6,22.5,86.5,1007.4,0.00,0,0.0,0.0,0,0.0,21.6,0.0,11.9,3.470
2007/11/01,16:00:01,212,25,152,0.3,6.0,10.6,22.6,86.7,1007.3,0.00,0,0.0,0.0,0,0.0,21.9,0.0,12.0,3.470
2007/11/01,16:10:01,302,25,101,0.8,5.9,11.7,22.5,84.2,1007.2,0.00,0,0.0,0.0,0,0.0,21.9,0.0,12.0,3.472
2007/11/01,16:20:01,258,27,203,0.1,5.7,11.0,22.6,86.1,1007.4,0.00,0,0.0,0.0,0,0.0,21.9,0.0,12.1,3.472
2007/11/01,16:30:01,251,23,162,0.3,5.6,10.7,22.7,86.7,1007.7,0.00,0,0.0,0.0,0,0.0,21.9,0.0,12.1,3.472
2007/11/01,16:40:01,237,26,98,0.3,5.1,10.2,22.6,88.2,1008.1,0.13,570,0.0,0.0,0,0.0,21.4,0.0,12.0,3.472
2007/11/01,16:50:01,239,24,125,0.2,5.5,12.6,22.5,88.5,1008.0,0.25,530,5.5,0.0,0,0.0,21.2,0.0,12.1,3.472
2007/11/01,17:00:01,304,21,117,0.3,5.8,12.8,22.3,88.8,1008.1,0.13,570,2.2,0.0,0,0.0,20.9,0.0,12.3,3.473
2007/11/01,17:10:01,210,23,184,0.2,6.5,11.5,22.0,88.4,1008.0,0.26,350,0.0,0.0,0,0.0,20.9,0.0,12.2,3.472
2007/11/01,17:20:01,251,23,97,0.6,6.0,10.9,22.1,88.4,1008.2,0.10,430,0.4,0.0,0,0.0,20.7,0.0,11.9,3.472
2007/11/01,17:30:01,241,25,144,0.1,5.4,10.7,22.0,87.7,1008.2,0.08,580,0.0,0.0,0,0.0,20.6,0.0,12.1,3.472
2007/11/01,17:40:01,312,24,193,0.3,5.2,9.6,22.1,87.8,1008.2,0.05,190,0.9,0.0,0,0.0,20.9,0.0,12.0,3.470
2007/11/01,17:50:01,251,25,170,0.3,5.3,10.2,22.2,89.1,1008.3,0.16,570,0.2,0.0,0,0.0,20.7,0.0,12.0,3.469
2007/11/01,18:00:01,297,18,150,0.6,5.6,10.7,22.2,89.3,1008.2,0.01,120,0.2,0.0,0,0.0,20.9,0.0,12.0,3.472
2007/11/01,18:10:01,322,25,157,0.4,6.2,13.0,22.0,86.3,1008.2,0.02,200,0.0,0.0,0,0.0,20.9,0.0,12.0,3.470
2007/11/01,18:20:01,318,27,186,0.2,6.1,11.5,22.0,86.3,1008.1,0.00,0,0.0,0.0,0,0.0,20.9,0.0,12.1,3.472
2007/11/01,18:30:01,290,27,123,0.0,5.6,11.8,22.3,87.7,1008.1,0.00,0,0.0,0.0,0,0.0,20.9,0.0,12.0,3.470
2007/11/01,18:40:01,253,26,200,0.4,5.9,11.7,22.4,87.5,1008.0,0.00,0,0.0,0.0,0,0.0,21.4,0.0,11.8,3.473
2007/11/01,18:50:01,322,25,89,0.4,6.2,12.1,22.5,88.5,1008.0,0.00,0,0.0,0.0,0,0.0,21.6,0.0,11.8,3.472
2007/11/01,19:00:01,332,28,92,0.1,6.7,13.7,22.4,85.5,1008.3,0.00,60,0.0,0.0,0,0.0,21.6,0.0,11.8,3.472
2007/11/01,19:10:01,275,24,183,0.2,7.3,12.8,22.4,83.6,1008.4,0.00,0,0.0,0.0,0,0.0,21.4,0.0,12.1,3.472
2007/11/01,19:20:01,203,21,198,0.4,7.0,13.8,22.6,84.3,1008.6,0.00,0,0.0,0.0,0,0.0,21.6,0.0,12.2,3.470
2007/11/01,19:30:01,303,25,189,0.1,7.3,13.3,22.6,84.8,1008.8,0.00,10,0.0,0.0,0,0.0,21.6,0.0,12.0,3.470
2007/11/01,19:40:01,264,24,204,0.2,6.9,13.8,22.5,83.3,1009.1,0.03,190,0.0,0.0,0,0.0,21.4,0.0,12.0,3.473
2007/11/01,19:50:01,278,25,180,0.4,6.0,12.9,22.6,86.2,1009.3,0.01,240,0.1,0.0,0,0.0,21.1,0.0,12.2,3.472
2007/11/01,20:00:01,254,25,171,0.0,6.2,12.3,22.4,85.9,1009.3,0.00,90,0.0,0.0,0,0.0,21.2,0.0,12.0,3.472
2007/11/01,20:10:01,294,25,168,0.4,6.0,13.1,22.4,87.2,1008.9,0.06,420,0.0,0.0,0,0.0,21.1,0.0,12.0,3.470
2007/11/01,20:20:01,289,29,170,0.3,6.4,12.3,22.4,87.1,1008.7,0.00,20,0.0,0.0,0,0.0,21.1,0.0,12.2,3.472
2007/11/01,20:30:01,312,32,106,0.1,6.0,11.7,22.6,87.9,1008.6,0.00,0,0.0,0.0,0,0.0,21.2,0.0,11.9,3.472
2007/11/01,20:40:01,241,35,147,0.2,5.9,12.2,22.6,86.9,1008.7,0.00,0,0.0,0.0,0,0.0,21.6,0.0,12.0,3.472
2007/11/01,20:50:01,264,35,204,0.4,6.3,12.8,22.6,87.4,1008.6,0.00,0,0.0,0.0,0,0.0,21.6,0.0,12.2,3.472
2007/11/01,21:00:01,276,33,163,0.2,6.5,11.7,22.7,88.2,1008.6,0.00,0,0.0,0.0,0,0.0,21.7,0.0,12.3,3.472
2007/11/01,21:10:01,301,28,128,0.3,8.5,16.7,22.7,87.6,1008.7,0.01,100,0.3,0.0,0,0.0,21.7,0.0,11.8,3.473
2007/11/01,21:20:01,289,26,108,0.7,8.7,17.6,22.5,86.9,1008.7,0.01,90,0.0,0.0,0,0.0,21.6,0.0,12.1,3.472
2007/11/01,21:30:01,321,29,107,0.8,8.1,16.4,22.6,86.5,1008.7,0.00,0,0.0,0.0,0,0.0,21.6,0.0,11.8,3.472
2007/11/01,21:40:01,342,30,89,0.3,8.0,16.0,22.7,86.8,1009.0,0.00,0,0.0,0.0,0,0.0,21.9,0.0,11.9,3.470
2007/11/01,21:50:01,265,31,131,0.4,7.9,15.3,22.7,85.4,1009.1,0.00,0,0.0,0.0,0,0.0,21.9,0.0,12.2,3.473
2007/11/01,22:00:01,313,33,172,0.6,7.4,14.2,22.6,85.9,1009.1,0.00,0,0.0,0.0,0,0.0,21.9,0.0,11.8,3.472
2007/11/01,22:10:01,306,30,204,0.4,7.4,13.9,22.6,86.9,1009.2,0.00,50,0.0,0.0,0,0.0,21.6,0.0,12.1,3.472
2007/11/01,22:20:01,242,30,165,0.1,7.5,15.4,22.5,85.5,1009.4,0.00,0,0.0,0.0,0,0.0,21.7,0.0,12.1,3.470
2007/11/01,22:30:01,255,28,171,0.1,7.4,13.6,22.5,86.5,1009.3,0.02,90,0.0,0.0,0,0.0,21.4,0.0,12.1,3.472
2007/11/01,22:40:01,206,24,189,0.3,8.2,16.2,22.2,86.4,1009.4,0.00,0,0.0,0.0,0,0.0,21.2,0.0,12.2,3.470
2007/11/01,22:50:01,237,27,183,0.2,7.2,15.0,22.3,86.6,1009.3,0.00,0,0.0,0.0,0,0.0,21.4,0.0,12.2,3.472
2007/11/01,23:00:01,292,27,182,0.2,7.4,13.9,22.1,86.0,1009.3,0.00,0,0.0,0.0,0,0.0,21.2,0.0,11.9,3.472
2007/11/01,23:10:01,291,25,178,0.5,7.0,13.9,21.8,87.0,1009.1,0.00,20,0.0,0.0,0,0.0,21.1,0.0,12.0,3.470
2007/11/01,23:20:01,243,27,201,0.3,6.7,13.3,21.9,87.0,1009.1,0.01,120,0.0,0.0,0,0.0,20.7,0.0,12.1,3.472
2007/11/01,23:30:01,266,26,148,0.2,7.4,15.0,21.6,87.3,1009.0,0.00,0,0.0,0.0,0,0.0,20.6,0.0,11.9,3.470
2007/11/01,23:40:01,319,29,137,0.3,7.3,13.9,21.8,86.4,1009.1,0.00,40,0.0,0.0,0,0.0,20.6,0.0,12.1,3.472
2007/11/01,23:50:01,213,30,205,0.4,7.5,15.1,22.0,86.5,1008.9,0.03,330,0.3,0.0,0,0.0,20.7,0.0,12.1,3.472
2007/11/02,00:00:01,289,32,131,0.3,7.3,13.8,22.0,88.3,1008.9,0.08,520,0.0,0.0,0,0.0,20.7,0.0,11.9,3.470
2007/11/02,00:10:01,242,34,190,0.2,7.0,13.5,21.7,87.3,1008.8,0.00,30,0.0,0.0,0,0.0,20.4,0.0,11.9,3.473
2007/11/02,00:20:01,308,41,209,0.3,6.0,12.0,21.5,87.0,1008.5,0.00,0,0.0,0.0,0,0.0,20.4,0.0,12.1,3.472
2007/11/02,00:30:01,301,38,187,0.4,6.4,15.4,21.6,85.4,1008.6,0.00,0,0.0,0.0,0,0.0,20.6,0.0,12.2,3.473
2007/11/02,00:40:01,238,39,186,0.2,5.9,14.2,21.6,84.9,1008.6,0.00,0,0.0,0.0,0,0.0,20.7,0.0,12.3,3.472
2007/11/02,00:50:01,260,33,156,0.1,5.9,13.0,21.8,85.7,1008.5,0.00,0,0.0,0.0,0,0.0,20.7,0.0,12.1,3.472
2007/11/02,01:00:01,258,30,178,0.2,6.4,13.1,22.0,85.4,1008.5,0.00,0,0.0,0.0,0,0.0,20.9,0.0,12.2,3.472
2007/11/02,01:10:01,289,33,132,0.1,6.7,15.1,22.1,83.7,1008.3,0.00,0,0.0,0.0,0,0.0,21.1,0.0,11.8,3.473
2007/11/02,01:20:01,251,35,201,0.1,6.0,12.4,22.1,83.7,1008.1,0.00,0,0.0,0.0,0,0.0,21.2,0.0,12.2,3.472
2007/11/02,01:30:01,246,39,162,0.2,5.4,11.5,22.1,82.7,1008.2,0.00,0,0.0,0.0,0,0.0,21.1,0.0,11.8,3.472
2007/11/02,01:40:01,225,39,182,0.2,5.4,11.9,22.2,81.7,1008.1,0.00,0,0.0,0.0,0,0.0,21.2,0.0,12.1,3.470
2007/11/02,01:50:01,234,37,196,0.3,5.4,12.1,22.4,81.4,1007.9,0.00,0,0.0,0.0,0,0.0,21.6,0.0,12.0,3.472
2007/11/02,02:00:01,230,44,194,0.2,5.1,12.3,22.3,81.1,1007.7,0.00,0,0.0,0.0,0,0.0,21.6,0.0,12.3,3.472
2007/11/02,02:10:01,248,43,208,0.0,6.1,14.6,22.4,82.1,1007.7,0.00,0,0.0,0.0,0,0.0,21.6,0.0,11.8,3.472
2007/11/02,02:20:01,238,41,189,0.2,6.1,13.3,22.3,81.5,1007.7,0.00,0,0.0,0.0,0,0.0,21.6,0.0,12.3,3.472
2007/11/02,02:30:01,222,38,209,0.4,6.4,12.9,22.5,81.4,1007.7,0.00,0,0.0,0.0,0,0.0,21.7,0.0,12.3,3.472
2007/11/02,02:40:01,241,33,128,0.3,7.7,18.5,22.1,84.3,1007.8,0.33,180,8.1,0.0,0,0.0,21.4,0.0,12.1,3.472
2007/11/02,02:50:01,295,25,167,0.4,9.8,19.9,21.3,85.9,1007.9,0.35,580,0.8,0.0,0,0.0,20.2,0.0,12.0,3.472
2007/11/02,03:00:01,232,22,129,0.2,10.4,19.5,21.4,84.1,1007.8,0.07,450,0.0,0.0,0,0.0,19.7,0.0,12.0,3.472
2007/11/02,03:10:01,231,22,160,0.8,9.8,19.3,21.5,82.9,1007.8,0.01,70,0.0,0.0,0,0.0,20.1,0.0,12.0,3.472
2007/11/02,03:20:01,306,22,118,1.4,10.5,20.0,21.8,81.8,1007.8,0.00,0,0.0,0.0,0,0.0,19.6,0.0,12.0,3.472
2007/11/02,03:30:01,265,25,187,0.6,9.7,19.1,21.9,80.2,1007.7,0.00,20,0.0,0.0,0,0.0,21.1,0.0,11.9,3.472
2007/11/02,03:40:01,303,22,161,0.5,9.8,18.1,22.1,80.6,1007.8,0.00,0,0.0,0.0,0,0.0,20.9,0.0,12.1,3.472
2007/11/02,03:50:01,274,23,136,0.1,10.1,18.3,22.1,80.3,1007.7,0.00,0,0.0,0.0,0,0.0,21.1,0.0,12.0,3.472
2007/11/02,04:00:01,278,26,194,0.3,10.0,18.3,22.3,78.1,1007.9,0.00,0,0.0,0.0,0,0.0,21.4,0.0,12.0,3.472
2007/11/02,04:10:01,258,26,79,0.4,9.6,19.1,22.4,76.2,1007.8,0.00,10,0.0,0.0,0,0.0,21.4,0.0,11.9,3.472
2007/11/02,04:20:01,258,23,118,0.6,9.7,18.4,22.4,77.1,1008.1,0.00,0,0.0,0.0,0,0.0,21.6,0.0,12.0,3.472
2007/11/02,04:30:01,262,24,186,0.7,9.4,18.5,22.3,74.6,1008.2,0.00,0,0.0,0.0,0,0.0,21.6,0.0,12.1,3.472
2007/11/02,04:40:01,229,23,161,0.5,10.0,20.6,22.3,74.9,1008.0,0.00,0,0.0,0.0,0,0.0,21.6,0.0,12.0,3.470
2007/11/02,04:50:01,256,25,205,0.2,9.5,18.4,22.0,76.2,1008.1,0.00,0,0.0,0.0,0,0.0,21.2,0.0,12.0,3.470
2007/11/02,05:00:01,257,24,194,0.7,9.2,17.8,21.9,76.1,1007.9,0.00,0,0.0,0.0,0,0.0,20.9,0.0,12.1,3.472
2007/11/02,05:10:01,262,24,168,0.5,9.0,17.9,22.1,77.0,1008.4,0.00,0,0.0,0.0,0,0.0,21.1,0.0,12.1,3.472
2007/11/02,05:20:01,270,21,142,0.6,9.7,19.1,21.3,80.0,1008.5,0.00,50,0.0,0.0,0,0.0,20.6,0.0,12.1,3.473
2007/11/02,05:30:01,290,22,202,0.3,10.1,19.3,21.2,78.3,1008.5,0.00,0,0.0,0.0,0,0.0,20.1,0.0,12.1,3.469
2007/11/02,05:40:01,318,23,139,0.5,9.8,18.6,21.5,77.9,1008.6,0.00,0,0.0,0.0,0,0.0,20.6,0.0,12.0,3.472
2007/11/02,05:50:01,296,26,141,0.9,10.3,19.5,21.6,75.7,1008.7,0.00,0,0.0,0.0,0,0.0,20.6,0.0,12.2,3.463
2007/11/02,06:00:01,230,27,111,0.9,10.2,18.1,21.9,74.1,1008.8,0.00,0,0.0,0.0,0,0.0,20.9,0.0,12.1,3.472
2007/11/02,06:10:01,258,30,160,1.0,9.8,18.2,22.0,72.1,1008.9,0.00,10,0.0,0.0,0,0.0,21.1,0.0,12.0,3.472
2007/11/02,06:20:01,328,28,95,0.5,9.2,18.0,22.2,71.5,1008.9,0.00,0,0.0,0.0,0,0.0,21.4,0.0,12.0,3.470
2007/11/02,06:30:01,261,27,184,0.2,9.1,16.7,22.2,71.1,1009.1,0.00,0,0.0,0.0,0,0.0,21.4,0.0,12.1,3.472
2007/11/02,06:40:01,240,29,158,0.9,9.4,18.0,22.1,70.5,1009.0,0.00,0,0.0,0.0,0,0.0,21.4,0.0,12.0,3.469
2007/11/02,06:50:01,211,28,151,0.8,9.2,17.0,22.2,71.0,1009.2,0.00,0,0.0,0.0,0,0.0,21.2,0.0,12.0,3.473
2007/11/02,07:00:01,213,28,203,0.3,8.9,17.2,22.2,72.3,1009.2,0.00,0,0.0,0.0,0,0.0,21.4,0.0,12.0,3.472
2007/11/02,07:10:01,268,25,175,0.3,9.6,18.0,22.1,70.4,1009.4,0.00,0,0.0,0.0,0,0.0,21.4,0.0,11.9,3.472
2007/11/02,07:20:01,249,26,134,0.3,9.3,17.2,22.2,71.1,1009.3,0.00,10,0.0,0.0,0,0.0,21.4,0.0,12.0,3.470
2007/11/02,07:30:01,266,28,152,0.6,9.4,17.2,22.1,70.6,1009.3,0.00,0,0.0,0.0,0,0.0,21.2,0.0,12.0,3.472
2007/11/02,07:40:01,281,28,128,0.2,9.1,19.0,22.1,70.0,1009.4,0.00,0,0.0,0.0,0,0.0,21.2,0.0,12.0,3.472
2007/11/02,07:50:01,242,27,192,0.2,9.0,17.9,22.1,71.5,1009.6,0.00,0,0.0,0.0,0,0.0,21.2,0.0,11.9,3.472
2007/11/02,08:00:01,242,30,117,0.8,9.3,19.5,22.0,70.8,1009.6,0.00,0,0.0,0.0,0,0.0,21.4,0.0,11.9,3.470
2007/11/02,08:10:01,333,30,209,0.3,8.9,17.0,22.1,69.0,1009.7,0.00,0,0.0,0.0,0,0.0,21.4,0.0,12.0,3.470
2007/11/02,08:20:01,218,30,149,0.1,9.3,18.8,22.1,69.9,1009.8,0.00,0,0.0,0.0,0,0.0,21.4,0.0,12.0,3.472
2007/11/02,08:30:01,234,30,90,0.8,9.1,16.7,22.1,69.4,1010.0,0.00,0,0.0,0.0,0,0.0,21.4,0.0,12.0,3.470
2007/11/02,08:40:01,247,32,156,0.3,9.2,17.3,22.1,68.9,1009.9,0.00,10,0.0,0.0,0,0.0,21.4,0.0,12.1,3.472
2007/11/02,08:50:01,280,33,191,0.7,8.7,16.3,22.1,70.3,1009.8,0.00,10,0.0,0.0,0,0.0,21.2,0.0,12.0,3.472
2007/11/02,09:00:01,221,30,154,0.3,8.6,19.0,22.2,68.6,1009.9,0.02,10,0.0,0.0,0,0.0,21.4,0.0,12.0,3.472
2007/11/02,09:10:01,248,28,132,0.5,9.4,17.7,22.0,69.8,1009.9,0.00,0,0.0,0.0,0,0.0,21.4,0.0,12.0,3.470
2007/11/02,09:20:01,217,30,154,0.1,8.8,17.8,22.0,69.9,1010.1,0.00,0,0.0,0.0,0,0.0,21.2,0.0,12.0,3.473
2007/11/02,09:30:01,224,30,168,0.6,9.1,16.3,22.1,70.9,1010.3,0.00,0,0.0,0.0,0,0.0,21.4,0.0,12.0,3.472
2007/11/02,09:40:01,239,28,74,0.9,8.6,16.8,22.1,71.0,1010.2,0.00,0,0.0,0.0,0,0.0,21.2,0.0,12.0,3.472
2007/11/02,09:50:01,247,30,171,0.5,8.5,16.4,22.2,68.9,1010.2,0.00,0,0.0,0.0,0,0.0,21.4,0.0,12.0,3.472
2007/11/02,10:00:01,243,30,150,0.3,8.6,17.1,22.2,68.6,1010.1,0.00,0,0.0,0.0,0,0.0,21.7,0.0,11.9,3.470
2007/11/02,10:10:01,250,29,170,0.1,8.4,17.6,22.2,65.7,1010.2,0.00,0,0.0,0.0,0,0.0,21.9,0.0,11.9,3.470
2007/11/02,10:20:01,228,29,160,0.4,8.6,15.9,22.4,67.2,1010.1,0.00,0,0.0,0.0,0,0.0,22.2,0.0,12.0,3.472
2007/11/02,10:30:01,213,32,180,0.3,8.1,15.8,22.2,69.3,1010.1,0.00,0,0.0,0.0,0,0.0,22.1,0.0,11.9,3.470
2007/11/02,10:40:01,244,32,156,0.3,8.4,15.8,22.1,68.6,1009.8,0.00,0,0.0,0.0,0,0.0,21.6,0.0,12.0,3.472
2007/11/02,10:50:01,247,32,200,0.1,8.5,16.9,21.9,69.7,1009.7,0.00,0,0.0,0.0,0,0.0,21.4,0.0,12.0,3.470
2007/11/02,11:00:01,220,35,157,1.0,8.8,17.5,21.8,70.5,1009.5,0.00,0,0.0,0.0,0,0.0,21.4,0.0,12.0,3.472
2007/11/02,11:10:01,234,31,166,0.6,9.2,19.3,21.9,70.1,1009.6,0.00,0,0.0,0.0,0,0.0,21.1,0.0,12.0,3.472
2007/11/02,11:20:01,258,29,176,0.9,9.1,18.0,22.0,69.6,1009.4,0.03,10,0.0,0.0,0,0.0,21.4,0.0,12.0,3.472
2007/11/02,11:30:01,232,29,105,0.6,9.0,17.0,22.1,69.5,1009.2,0.00,0,0.0,0.0,0,0.0,22.1,0.0,12.0,3.470
2007/11/02,11:40:01,243,28,188,1.0,8.9,17.0,22.3,68.2,1009.1,0.00,0,0.0,0.0,0,0.0,22.2,0.0,12.0,3.470
2007/11/02,11:50:01,252,29,112,0.2,9.0,17.2,22.1,68.2,1009.0,0.00,0,0.0,0.0,0,0.0,22.2,0.0,12.0,3.470
2007/11/02,12:00:01,221,25,192,0.2,9.2,17.6,21.9,67.5,1009.0,0.00,0,0.0,0.0,0,0.0,22.1,0.0,12.0,3.470
2007/11/02,12:10:01,259,27,133,0.2,9.2,19.1,22.0,66.0,1008.9,0.00,0,0.0,0.0,0,0.0,21.9,0.0,12.0,3.470
2007/11/02,12:20:01,312,28,133,0.3,9.2,16.2,22.1,66.6,1008.6,0.00,0,0.0,0.0,0,0.0,21.9,0.0,12.1,3.470
2007/11/02,12:30:01,257,26,175,0.7,9.1,16.1,22.1,65.0,1008.5,0.00,0,0.0,0.0,0,0.0,22.1,0.0,11.9,3.472
2007/11/02,12:40:01,250,28,145,0.7,8.9,16.5,22.0,65.2,1008.3,0.00,0,0.0,0.0,0,0.0,22.2,0.0,11.9,3.470
2007/11/02,12:50:01,238,27,198,0.7,8.9,18.7,22.0,64.8,1008.3,0.00,0,0.0,0.0,0,0.0,22.1,0.0,12.0,3.472
2007/11/02,13:00:01,254,29,190,0.3,8.9,17.9,22.2,64.3,1008.3,0.00,0,0.0,0.0,0,0.0,22.6,0.0,11.9,3.470
2007/11/02,13:10:01,295,25,130,0.5,8.4,16.6,22.0,63.0,1008.2,0.00,0,0.0,0.0,0,0.0,22.6,0.0,12.0,3.469
2007/11/02,13:20:01,236,26,188,0.6,8.1,17.3,22.1,63.4,1008.1,0.00,0,0.0,0.0,0,0.0,23.1,0.0,12.0,3.470
2007/11/02,13:30:01,239,26,169,0.3,8.3,15.4,22.0,63.3,1008.0,0.00,0,0.0,0.0,0,0.0,22.1,0.0,12.0,3.472
2007/11/02,13:40:01,245,25,169,0.9,8.3,17.0,22.0,62.1,1008.0,0.00,0,0.0,0.0,0,0.0,21.9,0.0,12.1,3.472
2007/11/02,13:50:01,228,25,198,0.1,8.2,15.9,22.0,63.9,1007.8,0.00,0,0.0,0.0,0,0.0,22.1,0.0,12.0,3.470
2007/11/02,14:00:01,265,28,196,0.2,8.4,15.8,21.8,62.6,1007.7,0.00,0,0.0,0.0,0,0.0,21.9,0.0,11.9,3.472
2007/11/02,14:10:01,334,28,168,0.4,8.2,16.3,21.9,65.1,1007.5,0.00,0,0.0,0.0,0,0.0,21.7,0.0,12.0,3.470
2007/11/02,14:20:01,258,28,182,0.3,8.3,16.6,21.9,64.7,1007.4,0.00,0,0.0,0.0,0,0.0,22.1,0.0,12.1,3.470